FENGYUN 1C DEB

Satellite information

Favourite Embed

Satellite Type and Status

DEBRISIN ORBIT

Key statistics

Satellite FENGYUN 1C DEB at a glance.

Uptime

9493

Days in orbit

Revolutions

≈ 14.8

Per day

Orbit

SSO

Sun Synchronous Orbit

Inclination

98.9

Latest

Satellite identification and parameters

Extended collection of information and parameters for FENGYUN 1C DEB.

Object identification

Identified? True

Debris? True

Object name: FENGYUN 1C DEB

International designator: 1999-025CUF

Object number (NORAD): 32185

Object ID (CCSDS): 32185

Country: PEOPLES REPUBLIC OF CHINA (PRC)

Current information (Y/N): Y

RCS size: SMALL

Orbital parameters

Period: 97.056 minutes

Inclination: 98.9165 deg

SMA: 6995.884 km

Apoapsis: 771.357 km

Periapsis: 464.141 km

RAAN: 301.1909 deg

Eccentricy: 0.0219569

Argument of periapsis: 11.7192 deg

Mean anomaly: 348.9012 deg

Mean motion: 14.83675409 rev/day

Mean motion (dot): 0.00034626 rev/day2

B* drag term: 0.0027227 1/REarth

Two-line elements (TLE)

Creation date: May 4, 2025, 7:16 a.m.

Reference frame: TEME

Reference center: EARTH

Epoch: May 3, 2025, 10:27 p.m. UTC

TLE line 0: 0 FENGYUN 1C DEB

TLE line 1: 1 32185U 99025CUF 25123.93558936 .00034626 00000-0 27227-2 0 9998

TLE line 2: 2 32185 98.9165 301.1909 0219569 11.7192 348.9012 14.83675409916713

Live tracking on map

Real-time ground track for satellite FENGYUN 1C DEB.

In-orbit conjunctions

A list of the most updated potential collisions computed for object FENGYUN 1C DEB.

Target Orbit TCA Probability of collision Miss distance Type
CZ-6A DEB LEO 2024-12-27 05:06:56 0.0004561921 600.0 (m) DEBRIS
COSMOS 1275 DEB LEO 2024-12-04 07:18:06 0.0001068453 138.0 (m) DEBRIS

Associated space launch

Chinese polar orbiting meteorological satellite

FENGYUN 1C DEB was lifted into orbit during the mission ‘Long March 4B | Feng Yun 1C’, on board a Long March 4B space rocket.

The launch took place on May 10, 1999, 1:33 a.m. from Launch Complex 7.

For more information about the launch, click the button.

Launch to space Long March 4B | Feng Yun 1C
Long March 4B | Feng Yun 1C

Agency: N/A

Status: Launch Successful

Launch date: May 10, 1999, 1:33 a.m. UTC

Rocket: Long March 4B

Launch pad: Launch Complex 7

Location: Taiyuan Satellite Launch Center, People's Republic of China

...

Latest news about this satellite

There are no fresh news available about this satellite. Check back as we update our databases every day.


Newsletter sign-up

Weekly statistics, charts and insights to help you stay on top of the space industry.